This is the latest recevied weather packets stored in our database for station/object JG6YPS-13. If no packets are shown the sender has not sent any weather packets the latest 10 day(s).
| Time | Temp. | Humidity | Pressure | Rain* | Wind** | Luminosity | Snow |
|---|---|---|---|---|---|---|---|
| 1777597893 | 18.33° C | 49% | 1011.2 hPa | 0 mm | - | - | - |
| 1777597294 | 18.33° C | 51% | 1011.2 hPa | 0 mm | - | - | - |
| 1777596694 | 18.33° C | 50% | 1011.3 hPa | 0 mm | - | - | - |
| 1777596094 | 18.33° C | 56% | 1011.3 hPa | 0 mm | - | - | - |
| 1777595494 | 18.33° C | 59% | 1011.4 hPa | 0 mm | - | - | - |
| 1777594895 | 18.89° C | 58% | 1011.3 hPa | 0 mm | - | - | - |
| 1777594295 | 17.78° C | 68% | 1011.3 hPa | 0 mm | - | - | - |
| 1777593696 | 16.11° C | 66% | 1011.2 hPa | 0 mm | - | - | - |
| 1777593096 | 17.22° C | 71% | 1011.2 hPa | 0 mm | - | - | - |
| 1777592496 | 16.11° C | 71% | 1011.1 hPa | 0.25 mm | - | - | - |
| 1777591897 | 16.11° C | 74% | 1010.9 hPa | 0.25 mm | - | - | - |
| 1777591297 | 16.11° C | 77% | 1010.8 hPa | 0.25 mm | - | - | - |
| 1777590698 | 16.67° C | 78% | 1010.6 hPa | 0.25 mm | - | - | - |
| 1777590098 | 16.11° C | 79% | 1010.4 hPa | 0.25 mm | - | - | - |
| 1777589498 | 16.11° C | 80% | 1010.3 hPa | 0.25 mm | - | - | - |
| 1777588899 | 15° C | 84% | 1010.2 hPa | 0 mm | - | - | - |
| 1777588300 | 14.44° C | 84% | 1010.2 hPa | 0 mm | - | - | - |
| 1777587701 | 14.44° C | 85% | 1010.1 hPa | 0 mm | - | - | - |
| 1777587101 | 14.44° C | 85% | 1009.8 hPa | 0 mm | - | - | - |
| 1777586502 | 14.44° C | 87% | 1009.7 hPa | 0 mm | - | - | - |
| 1777585903 | 13.89° C | 87% | 1009.7 hPa | 0 mm | - | - | - |
| 1777585304 | 13.89° C | 87% | 1009.7 hPa | 0 mm | - | - | - |
| 1777584705 | 13.89° C | 87% | 1009.6 hPa | 0 mm | - | - | - |
| 1777584106 | 13.89° C | 87% | 1009.7 hPa | 0 mm | - | - | - |
| 1777583506 | 13.89° C | 87% | 1009.5 hPa | 0 mm | - | - | - |
* Rain latest hour (hover to see other rain measurements)
** Current wind speed in m/s (hover to see current wind gust speed)